EW8328 Weather Reports


time (UTC)temp
C
wind
direction
speed
KPH
gust
KPH
rain 1hr
cm
rain 24hr
cm
rain mn
cm
humidity
%
barometer
mb
20260503204352 8 330 3.2 4.8 0.00 1.17 0.84 92 1012.1
20260503203853 8 195 1.6 4.8 0.00 1.17 0.84 92 1012.0
20260503203353 8 198 3.2 8.0 0.00 1.17 0.84 92 1011.9
20260503201852 8 142 6.4 12.9 0.00 1.17 0.84 92 1011.7
20260503201352 8 319 1.6 4.8 0.00 1.17 0.84 92 1011.7
20260503200352 8 246 1.6 4.8 0.00 1.17 0.84 92 1011.6
20260503195853 8 227 3.2 4.8 0.00 1.17 0.84 92 1011.5
20260503195352 8 226 4.8 8.0 0.00 1.17 0.84 92 1011.3
20260503194852 8 345 1.6 8.0 0.00 1.17 0.84 92 1011.4
20260503194352 8 338 1.6 4.8 0.00 1.17 0.84 92 1011.3
20260503193852 8 255 3.2 8.0 0.00 1.17 0.84 92 1011.2
20260503193352 8 17 1.6 4.8 0.00 1.17 0.84 92 1011.2
20260503191853 8 164 3.2 12.9 0.00 1.17 0.84 92 1010.9
20260503191354 8 244 3.2 4.8 0.00 1.17 0.84 91 1010.9
20260503190853 8 9 0.0 3.2 0.00 1.17 0.84 91 1010.9
20260503190353 8 9 1.6 4.8 0.00 1.17 0.84 92 1010.8
20260503185853 8 28 1.6 8.0 0.00 1.17 0.84 92 1010.7
20260503185352 8 243 1.6 8.0 0.00 1.17 0.84 92 1010.7
20260503183853 8 86 1.6 3.2 0.00 1.17 0.84 92 1010.6
20260503183352 8 12 4.8 12.9 0.00 1.17 0.84 92 1010.5
20260503182853 8 75 1.6 9.7 0.00 1.17 0.84 92 1010.4
20260503182352 8 21 0.0 4.8 0.00 1.17 0.84 92 1010.4
20260503181852 8 41 1.6 9.7 0.00 1.17 0.84 92 1010.4
20260503181352 8 357 3.2 9.7 0.00 1.17 0.84 92 1010.4
20260503180852 9 28 3.2 9.7 0.00 1.17 0.84 92 1010.4
20260503180352 9 10 3.2 8.0 0.00 1.17 0.84 92 1010.3
20260503175852 9 49 3.2 8.0 0.00 1.17 0.84 92 1010.3
20260503175352 9 55 0.0 3.2 0.00 1.17 0.84 92 1010.2
20260503174852 9 47 1.6 9.7 0.00 1.17 0.84 92 1010.1
20260503173852 9 356 1.6 8.0 0.00 1.17 0.84 92 1010.1
20260503173352 9 306 1.6 4.8 0.00 1.17 0.84 92 1010.1
20260503172352 9 103 3.2 12.9 0.00 1.17 0.84 92 1010.0
20260503171352 9 8 3.2 9.7 0.00 1.17 0.84 92 1009.9
20260503170853 9 350 1.6 8.0 0.00 1.17 0.84 92 1010.0
20260503170352 9 354 4.8 11.3 0.00 1.17 0.84 92 1009.9
20260503150853 10 17 1.6 12.9 0.00 1.17 0.84 92 1009.5
20260503150352 10 348 4.8 11.3 0.00 1.17 0.84 91 1009.4
20260503131352 10 18 3.2 12.9 0.00 1.17 0.84 93 1009.1
20260503130852 10 23 3.2 9.7 0.00 1.17 0.84 93 1009.1
20260503130352 10 4 3.2 11.3 0.03 1.17 0.84 93 1009.1
20260503090352 10 46 4.8 12.9 0.08 1.09 0.74 94 1008.3
20260503081352 10 22 4.8 16.1 0.05 0.99 0.66 93 1008.3
20260503080852 10 13 6.4 20.9 0.05 0.99 0.66 93 1008.3
20260503080352 10 300 3.2 12.9 0.05 0.99 0.66 93 1008.3
20260503072852 10 38 6.4 19.3 0.03 0.99 0.64 93 1008.0
20260503072352 10 6 8.0 19.3 0.00 0.97 0.61 93 1007.9
20260503071852 10 10 4.8 16.1 0.00 0.97 0.61 93 1007.9
20260503071351 10 5 8.0 20.9 0.00 0.97 0.61 93 1007.8
20260503070851 10 1 6.4 19.3 0.00 0.97 0.61 93 1007.8
20260503070351 10 32 4.8 16.1 0.00 0.97 0.61 93 1007.8
20260503054852 10 339 3.2 20.9 0.00 0.97 0.61 93 1007.5
20260503052852 10 13 8.0 19.3 0.00 0.97 0.61 93 1007.4
20260503052351 10 357 3.2 16.1 0.00 0.97 0.61 93 1007.3
20260503051852 10 13 8.0 16.1 0.00 0.97 0.61 93 1007.3
20260503051352 10 359 8.0 14.5 0.00 0.97 0.61 93 1007.3
20260503050852 10 46 6.4 16.1 0.00 0.97 0.61 93 1007.4
20260503050352 10 30 3.2 14.5 0.00 0.97 0.61 93 1007.4
20260503045851 10 37 4.8 22.5 0.00 0.97 0.61 93 1007.4
20260503044851 10 71 3.2 16.1 0.03 0.97 0.61 93 1007.4
20260503044351 10 22 6.4 19.3 0.03 0.97 0.61 93 1007.4
20260503043852 10 36 8.0 14.5 0.03 0.97 0.61 93 1007.4
20260503043351 10 23 4.8 16.1 0.03 0.97 0.61 93 1007.4
20260503042351 10 73 4.8 14.5 0.05 0.97 0.61 93 1007.4
20260503041851 10 0 3.2 14.5 0.05 0.97 0.61 93 1007.4
20260503041351 10 26 6.4 19.3 0.05 0.97 0.61 93 1007.5
20260503040851 10 39 8.0 16.1 0.05 0.97 0.61 93 1007.4
20260503040352 10 11 4.8 11.3 0.05 0.97 0.61 93 1007.6
20260503035851 10 329 3.2 19.3 0.05 0.97 0.61 93 1007.6
20260503035351 10 338 4.8 14.5 0.05 0.97 0.61 93 1007.7
20260503034851 10 6 3.2 12.9 0.05 0.94 0.61 93 1007.9
20260503034351 10 9 1.6 8.0 0.05 0.94 0.61 93 1008.0
20260503032851 10 307 3.2 9.7 0.05 0.94 0.61 93 1008.1
20260503032351 10 23 3.2 12.9 0.05 0.91 0.58 93 1008.2
20260503031851 10 32 3.2 8.0 0.05 0.91 0.58 93 1008.2
20260503030851 10 201 1.6 3.2 0.05 0.89 0.56 93 1008.4
20260503030351 10 24 1.6 9.7 0.05 0.89 0.56 93 1008.4
20260503025852 10 165 3.2 8.0 0.08 0.89 0.56 94 1008.4
20260503025351 10 343 3.2 12.9 0.08 0.89 0.56 94 1008.4
20260503024851 10 359 3.2 4.8 0.08 0.89 0.56 94 1008.4
20260503024351 10 27 0.0 4.8 0.08 0.89 0.56 94 1008.4
20260503023852 10 193 1.6 4.8 0.10 0.89 0.56 94 1008.5
20260503023351 10 193 1.6 8.0 0.08 0.89 0.53 94 1008.5
20260503022851 10 47 3.2 8.0 0.08 0.89 0.53 94 1008.6
20260503022351 10 112 1.6 11.3 0.05 0.86 0.51 94 1008.5
20260503021852 10 15 1.6 8.0 0.08 0.86 0.51 94 1008.5
20260503021352 10 357 3.2 8.0 0.08 0.84 0.51 94 1008.7
20260503020851 10 23 1.6 8.0 0.08 0.84 0.51 94 1008.7
20260503020351 10 9 3.2 9.7 0.10 0.84 0.51 94 1008.8
20260503015851 10 342 1.6 4.8 0.10 0.81 0.48 94 1008.8
20260503014851 10 343 3.2 4.8 0.13 0.81 0.48 94 1008.9
20260503013852 10 75 3.2 4.8 0.15 0.79 0.46 93 1009.0
20260503013351 10 14 4.8 12.9 0.15 0.79 0.46 93 1009.1
20260503012851 10 10 3.2 9.7 0.15 0.79 0.46 93 1009.1
20260503012351 10 22 3.2 9.7 0.18 0.79 0.46 93 1009.1
20260503011851 10 0 4.8 9.7 0.18 0.79 0.43 93 1009.2
20260503011351 10 355 3.2 4.8 0.18 0.76 0.43 93 1009.3
20260503010851 10 0 3.2 4.8 0.18 0.76 0.43 93 1009.3
20260503010352 10 24 3.2 11.3 0.18 0.74 0.41 93 1009.4
20260503005851 10 26 0.0 3.2 0.18 0.71 0.38 93 1009.5
20260503003851 10 14 3.2 8.0 0.18 0.66 0.33 93 1009.6
20260503003350 10 12 1.6 4.8 0.15 0.64 0.30 93 1009.7
20260503002852 10 358 3.2 20.9 0.18 0.64 0.30 93 1009.7
20260503002351 10 11 1.6 4.8 0.18 0.61 0.28 93 1009.7
20260503001851 10 354 4.8 9.7 0.18 0.61 0.25 93 1009.8
20260503001351 10 341 3.2 4.8 0.18 0.58 0.23 92 1009.9
20260503000351 10 8 1.6 8.0 0.20 0.56 0.23 92 1010.0
20260502235851 10 327 4.8 11.3 0.20 0.53 0.20 92 1010.0
20260502235352 10 2 3.2 11.3 0.20 0.51 0.18 92 1010.1
20260502234851 10 3 3.2 9.7 0.20 0.51 0.15 91 1010.1
20260502234352 10 11 3.2 9.7 0.20 0.51 0.15 91 1010.1
20260502233852 10 5 4.8 9.7 0.20 0.48 0.15 91 1010.1
20260502233351 11 5 3.2 11.3 0.20 0.48 0.15 91 1010.2
20260502232851 11 2 3.2 11.3 0.20 0.46 0.13 91 1010.3
20260502232351 11 14 3.2 9.7 0.18 0.43 0.10 91 1010.3
20260502231851 11 20 3.2 11.3 0.18 0.43 0.08 90 1010.4
20260502231350 11 19 4.8 11.3 0.15 0.41 0.05 90 1010.4
20260502230934 11 334 3.2 9.7 0.15 0.38 0.05 89 1010.5
20260502230351 11 352 1.6 4.8 0.15 0.36 0.03 89 1010.7
20260502225852 11 35 1.6 3.2 0.15 0.33 0.33 89 1010.7
20260502225352 11 338 1.6 4.8 0.15 0.33 0.33 89 1010.7
20260502224851 11 4 1.6 8.0 0.15 0.30 0.30 89 1010.7
20260502224351 11 9 3.2 8.0 0.15 0.30 0.30 88 1010.6
20260502222852 11 3 1.6 4.8 0.18 0.25 0.25 88 1010.6
20260502221851 11 24 1.6 4.8 0.18 0.23 0.23 88 1010.7
20260502221351 11 29 0.0 3.2 0.20 0.23 0.23 88 1010.8
20260502220852 11 74 0.0 3.2 0.18 0.23 0.23 88 1010.8
20260502220351 11 49 1.6 3.2 0.18 0.20 0.20 87 1010.9
20260502215852 11 53 1.6 3.2 0.18 0.20 0.20 88 1010.9
20260502215351 11 348 1.6 4.8 0.15 0.18 0.18 88 1011.0
20260502214352 11 81 0.0 4.8 0.15 0.15 0.15 88 1011.2
20260502213851 11 90 1.6 3.2 0.13 0.13 0.13 88 1011.2
20260502213351 11 108 1.6 4.8 0.10 0.10 0.10 87 1011.2
20260502212351 12 100 1.6 3.2 0.05 0.05 0.05 87 1011.2
20260502211851 12 100 1.6 4.8 0.05 0.05 0.05 86 1011.3
20260502211350 12 146 1.6 4.8 0.05 0.05 0.05 84 1011.3
20260502210851 12 331 1.6 8.0 0.05 0.05 0.05 84 1011.2
20260502210352 12 322 1.6 4.8 0.03 0.03 0.03 83 1011.3
20260502205851 12 338 1.6 4.8 0.03 0.03 0.03 82 1011.4
20260502205351 12 316 1.6 4.8 0.03 0.03 0.03 81 1011.4
20260502204851 12 342 1.6 3.2 0.03 0.03 0.03 80 1011.4